Weather in Lae

Papua New Guinea     6°42′40″S   146°58′15″E
temp.,
°C
wind,
m/s
gust,
m/s
humid.,
%
clouds,
%
prec.,
mm/h
press.,
hPa
HPBL,
m
17 may, mon
mon1701:00+24nw228796 1.0 101080
04:00+24nw22825 1.1 1009113
07:00+24nw2381100 0.0 1011138
10:00+29e1164100 0.0 1011612
13:00+29se4468100 0.0 1008666
16:00+28se4474100 0.1 1007486
19:00+26sse248255 0.1 1010360
22:00+26se118517 1.1 101184
18 may, tue
tue1801:00+25wsw118451 2.2 101041
04:00+24nw22876 2.3 1010118
07:00+24wnw3379100 0.0 1011139
10:00+28ese1164100 0.2 1011574
13:00+29ese346497 0.1 1008683
16:00+28se45695 0.1 1007531
19:00+26sse237994 0.6 1009239
22:00+26sse128098 0.8 1011240
19 may, wed
wed1901:00+25sw118667 1.8 100939
04:00+24nw228675 2.9 100986
07:00+23nw338582 0.0 1011126
10:00+29e11639 0.0 1011539
13:00+29ese446118 0.0 1008705
16:00+28se3465100 0.0 1006437
19:00+27se2374100 0.0 1008385
22:00+26s1276100 0.0 1010329
20 may, thu
thu2001:00+24wnw22796 0.0 1009105
04:00+24nw347680 0.0 1008142
07:00+24nw4477100 0.0 1010159
10:00+30nnw1157100 0.0 1010689
13:00+29se4458100 0.0 1007684
16:00+28se456462 0.0 1006483
19:00+27se347666 0.0 1008350
22:00+26ssw127883 0.2 1010139
21 may, fri
fri2101:00+24wnw227926 0.4 1009107
04:00+24nw3476100 0.4 1008147
07:00+24nw4578100 0.0 1009168
10:00+29nnw2260100 0.0 1009645
13:00+29se4362100 0.0 1006713
16:00+27se4472100 0.0 1005490
19:00+26se2482100 0.4 1008269
22:00+26s018196 1.0 100961